Home > Weather > Wermelskirchen > Past weeks

Flag for Germany Past Weather in Wermelskirchen, North Rhine-Westphalia, Germany — Yesterday and Last 2 Weeks

Now
91 °F

Passing clouds.


Feels Like: 91 °F
Forecast: 58 / 67 °F
Wind: 17 mph from West

Location: Koeln / Bonn

Current Time: Aug 28, 2016 at 2:31:12 PM

Latest Report: Aug 28, 2016 at 1:50 PM


Visibility: N/A

Pressure: 29.89 "Hg

Humidity: 34%

Dew Point: 59 °F

Location of WermelskirchenLocation

Past Weather in Wermelskirchen — Graph

°F

Wermelskirchen Temperature Yesterday

Maximum temperature yesterday: 95 °F (at 3:50 PM)
Minimum temperature yesterday: 64 °F (at 4:50 AM)
Average temperature yesterday: 78 °F

High & Low Weather Summary for the Past Weeks

 TemperatureHumidityPressure
High95 °F (Aug 27, 3:50 PM)100% (Aug 14, 1:50 AM)30.36 "Hg (Aug 14, 1:50 AM)
Low48 °F (Aug 16, 6:50 AM)28% (Aug 25, 4:50 PM)29.77 "Hg (Aug 18, 2:20 PM)
Average69 °F69%30.05 "Hg
* Reported Aug 13 1:20 PM — Aug 28 1:20 PM, Wermelskirchen, Weather by CustomWeather, © 2016

Note: Actual official high and low records may vary slightly from our data, if they occured in-between our weather recording intervals... More about our weather records

Advertising

Wermelskirchen Weather History for the Previous 24 Hours

Scroll right to see more
 ConditionsComfort  
Time TempWeatherWind HumidityBarometerVisibility
1:20 PM
Sun, Aug 28
93 °FSunny.16 mph32%29.89 "Hg10 mi
12:50 PM91 °FSunny.14 mph36%29.89 "Hg10 mi
12:20 PM90 °FSunny.12 mph41%29.89 "Hg10 mi
11:50 AM88 °FPassing clouds.10 mph43%29.92 "HgN/A
11:20 AM86 °FPassing clouds.10 mph46%29.92 "HgN/A
10:50 AM84 °FSunny.10 mph48%29.92 "Hg10 mi
10:20 AM82 °FPassing clouds.9 mph55%29.92 "HgN/A
9:50 AM79 °FPassing clouds.7 mph58%29.92 "HgN/A
9:20 AM75 °FPassing clouds.8 mph69%29.92 "HgN/A
8:50 AM73 °FPassing clouds.5 mph74%29.92 "HgN/A
8:20 AM72 °FPassing clouds.3 mph73%29.92 "HgN/A
7:50 AM70 °FPassing clouds.3 mph78%29.92 "HgN/A
7:20 AM70 °FClear.2 mph78%29.92 "Hg10 mi
6:50 AM70 °FClear.3 mph78%29.92 "Hg10 mi
6:20 AM68 °FClear.6 mph83%29.92 "Hg10 mi
5:50 AM68 °FClear.2 mph83%29.92 "Hg10 mi
5:20 AM68 °FClear.1 mph83%29.92 "Hg10 mi
4:50 AM70 °FPassing clouds.7 mph78%29.92 "HgN/A
4:20 AM72 °FPassing clouds.5 mph73%29.92 "HgN/A
3:50 AM70 °FClear.2 mph78%29.95 "Hg10 mi
3:20 AM72 °FPassing clouds.5 mph73%29.95 "HgN/A
2:50 AM70 °FClear.2 mph78%29.95 "Hg10 mi
2:20 AM72 °FClear.2 mph73%29.95 "Hg10 mi
1:50 AM72 °FPassing clouds.5 mph78%29.95 "HgN/A
1:20 AM75 °FPassing clouds.3 mph69%29.95 "HgN/A
12:50 AM73 °FPassing clouds.5 mph74%29.95 "HgN/A
12:20 AM79 °FPassing clouds.7 mph58%29.95 "HgN/A
11:50 PM
Sat, Aug 27
75 °FPassing clouds.7 mph69%29.95 "HgN/A
11:20 PM79 °FClear.6 mph61%29.95 "Hg10 mi
10:50 PM79 °FClear.7 mph61%29.95 "Hg10 mi
10:20 PM81 °FPassing clouds.5 mph58%29.95 "HgN/A
9:50 PM81 °FPassing clouds.5 mph62%29.95 "HgN/A
9:20 PM81 °FScattered clouds.3 mph62%29.95 "HgN/A
8:50 PM81 °FScattered clouds.2 mph62%29.95 "HgN/A
8:20 PM79 °FScattered clouds.2 mph74%29.95 "HgN/A
7:50 PM82 °FScattered clouds.2 mph66%29.95 "HgN/A
7:20 PM84 °FScattered clouds.7 mph62%29.95 "HgN/A
6:50 PM86 °FPassing clouds.3 mph55%29.95 "HgN/A
6:20 PM84 °FSprinkles. Passing clouds.5 mph58%29.95 "HgN/A
5:50 PM86 °FThunderstorms. Passing clouds.3 mph55%29.98 "HgN/A
5:20 PM91 °FThundershowers. Passing clouds.6 mph36%29.98 "HgN/A
4:50 PM95 °FScattered showers. Passing clouds.7 mph32%29.98 "HgN/A
4:20 PM95 °FPassing clouds.8 mph32%29.98 "HgN/A
3:50 PM95 °FPassing clouds.6 mph34%29.98 "HgN/A
3:20 PM93 °FPassing clouds.7 mph36%30.01 "HgN/A
2:50 PM93 °FPassing clouds.6 mph41%30.01 "HgN/A
2:20 PM91 °FSunny.5 mph49%30.04 "Hg10 mi
Weather by CustomWeather, © 2016

See weather overviewHow to use our weather pages